Weather History for Dyersburg, TN

Change the Weather History Date:

Wednesday, October 23, 2013

  Actual Average Record
Temperature  
Mean Temperature 9 °C -  
Max Temperature 13 °C 20 °C 28 °C (2000)
Min Temperature 6 °C 8 °C 0 °C (1997)
Degree Days  
Heating Degree Days 16    
Growing Degree Days 0 (Base 50)    
Moisture  
Dew Point 0 °C    
Average Humidity 54    
Maximum Humidity 71    
Minimum Humidity 38    
Precipitation  
Precipitation 0.00 mm - - ()
Sea Level Pressure  
Sea Level Pressure 1019 hPa    
Wind  
Wind Speed 11 km/h (NNW)    
Max Wind Speed 24 km/h    
Max Gust Speed 34 km/h    
Visibility 16 kilometers    
Events      
Averages and records for this station are not official NWS values.
T = Trace of Precipitation, MM = Missing Value Source: NWS Daily Summary

Daily Weather History Graph

Daily Weather History Graph

Search for Another Location

Airport:

Trip Planner

Search our weather history database for the weather conditions in past years. The results will help you decide how hot, cold, wet, or windy it might be!

Date:

Astronomy

Oct. 23, 2013 Rise Set
Actual Time 7:11 AM CDT 6:11 PM CDT
Civil Twilight 6:45 AM CDT 6:37 PM CDT
Nautical Twilight 6:15 AM CDT 7:07 PM CDT
Astronomical Twilight 5:46 AM CDT 7:37 PM CDT
Moon 9:47 PM CDT (10/23) 11:24 AM CDT (10/23)
Length of Visible Light 11h 51m
Length of Day
10h 59m
Waning Gibbous, 79% of the Moon is Illuminated
Oct 23
Waning Gibbous
Oct 26
Last Quarter
Nov 3
New
Nov 9
First Quarter
Nov 17
Full

Hourly Weather History & Observations

Time (CDT) Temp. Windchill Dew Point Humidity Pressure Visibility Wind Dir Wind Speed Gust Speed Precip Events Conditions
12:15 AM 12.0 °C - 3.0 °C 54% 1014.4 hPa 16.1 km NW 13.0 km/h / 3.6 m/s - N/A   Partly Cloudy
12:35 AM 12.0 °C - 3.0 °C 54% 1014.4 hPa 16.1 km NW 7.4 km/h / 2.1 m/s - N/A   Clear
12:55 AM 12.0 °C - 2.0 °C 51% 1014.8 hPa 16.1 km NW 13.0 km/h / 3.6 m/s - N/A   Clear
1:15 AM 11.0 °C - 2.0 °C 54% 1014.8 hPa 16.1 km NW 11.1 km/h / 3.1 m/s - N/A   Clear
1:35 AM 11.0 °C - 2.0 °C 54% 1015.1 hPa 16.1 km NW 9.3 km/h / 2.6 m/s - N/A   Clear
1:55 AM 11.0 °C - 2.0 °C 54% 1015.1 hPa 16.1 km NW 7.4 km/h / 2.1 m/s - N/A   Clear
2:15 AM 10.0 °C - 2.0 °C 58% 1015.5 hPa 16.1 km NW 9.3 km/h / 2.6 m/s - N/A   Clear
2:35 AM 10.0 °C - 2.0 °C 58% 1015.5 hPa 16.1 km NW 7.4 km/h / 2.1 m/s - N/A   Mostly Cloudy
2:55 AM 9.0 °C - 2.0 °C 62% 1015.8 hPa 16.1 km WNW 9.3 km/h / 2.6 m/s - N/A   Partly Cloudy
3:15 AM 9.0 °C - 2.0 °C 62% 1015.8 hPa 16.1 km NW 14.8 km/h / 4.1 m/s - N/A   Clear
3:35 AM 9.0 °C - 2.0 °C 62% 1015.8 hPa 16.1 km NNW 13.0 km/h / 3.6 m/s - N/A   Clear
3:55 AM 8.0 °C 5.8 °C 2.0 °C 66% 1016.1 hPa 16.1 km NNW 13.0 km/h / 3.6 m/s - N/A   Clear
4:15 AM 8.0 °C 5.8 °C 1.0 °C 62% 1016.1 hPa 16.1 km North 13.0 km/h / 3.6 m/s - N/A   Clear
4:35 AM 7.0 °C 4.0 °C 1.0 °C 66% 1016.8 hPa 16.1 km NNW 16.7 km/h / 4.6 m/s - N/A   Clear
4:55 AM 7.0 °C 4.3 °C 0.0 °C 61% 1017.2 hPa 16.1 km NNW 14.8 km/h / 4.1 m/s 27.8 km/h / 7.7 m/s N/A   Partly Cloudy
5:15 AM 7.0 °C 4.0 °C -1.0 °C 57% 1017.5 hPa 16.1 km NNW 16.7 km/h / 4.6 m/s 27.8 km/h / 7.7 m/s N/A   Clear
5:35 AM 6.0 °C 3.7 °C -1.0 °C 61% 1017.8 hPa 16.1 km NNW 11.1 km/h / 3.1 m/s - N/A   Clear
5:55 AM 6.0 °C 3.3 °C -1.0 °C 61% 1017.8 hPa 16.1 km NNW 13.0 km/h / 3.6 m/s - N/A   Clear
6:15 AM 6.0 °C 4.0 °C -1.0 °C 61% 1018.2 hPa 16.1 km NNW 9.3 km/h / 2.6 m/s - N/A   Clear
6:35 AM 6.0 °C 3.0 °C -2.0 °C 57% 1018.5 hPa 16.1 km NNW 14.8 km/h / 4.1 m/s - N/A   Scattered Clouds
6:55 AM 6.0 °C 3.0 °C -2.0 °C 57% 1018.8 hPa 16.1 km NNW 14.8 km/h / 4.1 m/s - N/A   Overcast
7:15 AM 6.0 °C 2.5 °C -2.0 °C 57% 1019.2 hPa 16.1 km NNW 18.5 km/h / 5.1 m/s 31.5 km/h / 8.7 m/s N/A   Overcast
7:35 AM 6.0 °C 2.5 °C -1.0 °C 61% 1019.9 hPa 16.1 km North 18.5 km/h / 5.1 m/s - N/A   Overcast
7:55 AM 6.0 °C 3.7 °C -1.0 °C 61% 1020.2 hPa 16.1 km NNW 11.1 km/h / 3.1 m/s - N/A   Overcast
8:15 AM 6.0 °C 3.0 °C -1.0 °C 61% 1020.5 hPa 16.1 km North 14.8 km/h / 4.1 m/s - N/A   Overcast
8:35 AM 7.0 °C 5.7 °C -1.0 °C 57% 1020.9 hPa 16.1 km NNW 7.4 km/h / 2.1 m/s - N/A   Overcast
8:55 AM 7.0 °C 3.8 °C -1.0 °C 57% 1020.9 hPa 16.1 km North 18.5 km/h / 5.1 m/s - N/A   Overcast
9:15 AM 7.0 °C 3.4 °C -1.0 °C 57% 1020.9 hPa 16.1 km North 22.2 km/h / 6.2 m/s 33.3 km/h / 9.3 m/s N/A   Overcast
9:35 AM 8.0 °C 4.5 °C -1.0 °C 53% 1020.9 hPa 16.1 km North 24.1 km/h / 6.7 m/s 31.5 km/h / 8.7 m/s N/A   Scattered Clouds
9:55 AM 8.0 °C 5.0 °C -1.0 °C 53% 1021.2 hPa 16.1 km North 18.5 km/h / 5.1 m/s 29.6 km/h / 8.2 m/s N/A   Clear
10:15 AM 8.0 °C 5.3 °C -2.0 °C 50% 1021.6 hPa 16.1 km NNW 16.7 km/h / 4.6 m/s - N/A   Clear
10:35 AM 9.0 °C - -1.0 °C 50% 1021.9 hPa 16.1 km North 13.0 km/h / 3.6 m/s 25.9 km/h / 7.2 m/s N/A   Scattered Clouds
10:55 AM 9.0 °C - -1.0 °C 50% 1021.6 hPa 16.1 km NNW 18.5 km/h / 5.1 m/s - N/A   Scattered Clouds
11:15 AM 10.0 °C - -1.0 °C 47% 1021.6 hPa 16.1 km North 18.5 km/h / 5.1 m/s - N/A   Partly Cloudy
11:35 AM 10.0 °C - -2.0 °C 43% 1021.6 hPa 16.1 km NW 9.3 km/h / 2.6 m/s - N/A   Clear
11:55 AM 11.0 °C - -1.0 °C 44% 1021.6 hPa 16.1 km North 14.8 km/h / 4.1 m/s - N/A   Clear
12:15 PM 11.0 °C - -2.0 °C 41% 1021.6 hPa 16.1 km Calm Calm - N/A   Scattered Clouds
12:35 PM 12.0 °C - -1.0 °C 41% 1021.2 hPa 16.1 km WNW 14.8 km/h / 4.1 m/s - N/A   Scattered Clouds
12:55 PM 12.0 °C - -1.0 °C 41% 1020.9 hPa 16.1 km West 11.1 km/h / 3.1 m/s - N/A   Scattered Clouds
1:15 PM 11.0 °C - -1.0 °C 44% 1020.5 hPa 16.1 km WNW 13.0 km/h / 3.6 m/s - N/A   Partly Cloudy
1:35 PM 12.0 °C - -1.0 °C 41% 1020.2 hPa 16.1 km NW 13.0 km/h / 3.6 m/s - N/A   Clear
1:55 PM 12.0 °C - -1.0 °C 41% 1020.2 hPa 16.1 km WNW 11.1 km/h / 3.1 m/s - N/A   Clear
2:15 PM 12.0 °C - -1.0 °C 41% 1020.2 hPa 16.1 km WNW 5.6 km/h / 1.5 m/s - N/A   Clear
2:35 PM 12.0 °C - -1.0 °C 41% 1019.9 hPa 16.1 km WNW 9.3 km/h / 2.6 m/s - N/A   Clear
2:55 PM 12.0 °C - -1.0 °C 41% 1019.9 hPa 16.1 km NNW 11.1 km/h / 3.1 m/s - N/A   Clear
3:15 PM 12.0 °C - -1.0 °C 41% 1019.9 hPa 16.1 km WNW 13.0 km/h / 3.6 m/s - N/A   Clear
3:35 PM 13.0 °C - -1.0 °C 38% 1019.9 hPa 16.1 km West 9.3 km/h / 2.6 m/s - N/A   Clear
3:55 PM 13.0 °C - -1.0 °C 38% 1019.9 hPa 16.1 km NW 9.3 km/h / 2.6 m/s - N/A   Clear
4:15 PM 12.0 °C - -1.0 °C 41% 1019.9 hPa 16.1 km NW 11.1 km/h / 3.1 m/s - N/A   Clear
4:35 PM 13.0 °C - -1.0 °C 38% 1019.9 hPa 16.1 km NW 9.3 km/h / 2.6 m/s - N/A   Clear
4:55 PM 12.0 °C - -1.0 °C 41% 1019.9 hPa 16.1 km North 7.4 km/h / 2.1 m/s - N/A   Scattered Clouds
5:15 PM 12.0 °C - -1.0 °C 41% 1019.9 hPa 16.1 km NNW 11.1 km/h / 3.1 m/s - N/A   Overcast
5:35 PM 12.0 °C - 0.0 °C 44% 1019.9 hPa 16.1 km Calm Calm - N/A   Mostly Cloudy
5:55 PM 11.0 °C - -1.0 °C 44% 1019.9 hPa 16.1 km NW 5.6 km/h / 1.5 m/s - N/A   Partly Cloudy
6:15 PM 11.0 °C - 0.0 °C 47% 1019.9 hPa 16.1 km Calm Calm - N/A   Mostly Cloudy
6:35 PM 9.0 °C - 1.0 °C 58% 1019.9 hPa 16.1 km Calm Calm - N/A   Mostly Cloudy
6:55 PM 9.0 °C - 1.0 °C 58% 1019.9 hPa 16.1 km Calm Calm - N/A   Overcast
7:15 PM 9.0 °C - 2.0 °C 62% 1019.9 hPa 16.1 km Calm Calm - N/A   Overcast
7:35 PM 8.0 °C - 1.0 °C 62% 1019.9 hPa 16.1 km Calm Calm - N/A   Scattered Clouds
7:55 PM 8.0 °C - 1.0 °C 62% 1019.5 hPa 16.1 km Calm Calm - N/A   Mostly Cloudy
8:15 PM 8.0 °C - 1.0 °C 62% 1019.5 hPa 16.1 km Calm Calm - N/A   Overcast
8:35 PM 8.0 °C - 1.0 °C 62% 1019.5 hPa 16.1 km Calm Calm - N/A   Overcast
8:55 PM 7.0 °C - 1.0 °C 66% 1019.9 hPa 16.1 km Calm Calm - N/A   Scattered Clouds
9:15 PM 7.0 °C - 1.0 °C 66% 1019.9 hPa 16.1 km Calm Calm - N/A   Clear
9:35 PM 7.0 °C - 1.0 °C 66% 1019.9 hPa 16.1 km Calm Calm - N/A   Clear
9:55 PM 7.0 °C - 1.0 °C 66% 1020.2 hPa 16.1 km Calm Calm - N/A   Mostly Cloudy
10:15 PM 7.0 °C - 1.0 °C 66% 1020.2 hPa 16.1 km Calm Calm - N/A   Mostly Cloudy
10:35 PM 7.0 °C - 1.0 °C 66% 1020.5 hPa 16.1 km Calm Calm - N/A   Mostly Cloudy
10:55 PM 7.0 °C - 1.0 °C 66% 1020.5 hPa 16.1 km Calm Calm - N/A   Overcast
11:15 PM 7.0 °C - 2.0 °C 71% 1020.5 hPa 16.1 km Calm Calm - N/A   Overcast
11:35 PM 8.0 °C - 2.0 °C 66% 1020.5 hPa 16.1 km Calm Calm - N/A   Overcast
11:55 PM 7.0 °C - 2.0 °C 71% 1020.5 hPa 16.1 km Calm Calm - N/A   Overcast